EAGLET 1 (43790 NORAD) Tracking and Keplerian Element Data

This shows tracking and keplerian element data for the satellite.

Feedback or suggestion? Click here.




ElementValue
Catalog43790
NameEAGLET 1
Epoch Orbit4199
Epoch Day255.77953096
Epoch Year2019
RAAN326.8713
Inclination97.7399
Eccentricity0.0014565
Argument of Perigee50.0427
Mean Anonmoly310.2071
Mean Motion14.95544313
Decay Rate-2.52E-06
L11 43790U 18099AJ 19255.77953096 -.00000252 00000-0 -17485-4 0 9998
L22 43790 97.7399 326.8713 0014565 50.0427 310.2071 14.95544313 41994

Live tracking and technical data element details for EAGLET 1 (NORAD 43790). EAGLET 1 can be tracked NOW for your location showing map with azimuth and elevation plus other details from your city location.

Track the satellite on the map from your city or location and see movement details for azimuth, elevation, latitude, longitude, range, height, and movement on the map or in text.







IsCatalogInMostPopularTable: catalog: 43790, numindb: 132
Update: records affected: 1



GetName: 43790 EAGLET 1

Hit Count: updated at: Tue, 17 Sep 2019 20:35:28 GMT